Hourly Data Report for July 13, 2021

SARNIA
ONTARIO
Current Station Operator: NAVCAN

42°59'58.000" N
82°18'32.000" W
181.40 m
6127510
71704
YZR

Download Data

Hourly Data (July 2021)
Hourly Data Report for July 13, 2021
TIME
LST
Temp Definition
°C
Dew Point Definition
°C
Rel Hum Definition
%
Precip. Amount Definition
mm

Wind Dir Definition
10's deg

Wind Spd Definition
km/h
Visibility Definition
km
Stn Press Definition
kPa
Hmdx Definition


Wind Chill Definition


Weather Definition


00:00 19.8 19.0 95 0.0 15 4 11.3 99.74     LegendNANA
01:00 19.3 18.8 97 0.0 13 8 6.4 99.68     Fog
02:00 19.1 18.6 97 0.0 13 8 6.4 99.64     Fog
03:00 19.5 18.9 96 0.0 14 9 8.1 99.62     Fog
04:00 20.1 19.6 97 0.0 15 8 6.4 99.59 27   Rain, Fog
05:00 20.1 19.6 97 0.0 16 9 9.7 99.60 27   Fog
06:00 20.4 20.1 98 0.0 14 13 6.4 99.60 28   Fog
07:00 21.2 20.7 97 0.0 18 5 9.7 99.58 29   Rain, Fog
08:00 22.1 21.4 96 0.0 17 13 12.9 99.60 31   LegendNANA
09:00 23.0 22.0 94 0.5 17 17 16.1 99.58 32   LegendNANA
10:00 24.1 22.3 89 0.0 18 17 16.1 99.55 34   LegendNANA
11:00 25.0 22.6 87 0.0 19 17 16.1 99.52 35   LegendNANA
12:00 25.1 22.1 83 0.0 19 18 16.1 99.46 35   LegendNANA
13:00 27.0 21.9 73 0.0 20 32 16.1 99.39 36   LegendNANA
14:00 26.5 21.4 73 0.0 20 32 16.1 99.40 35   Thunderstorms
15:00 23.3 21.5 90 2.5 23 13 8.1 99.41 32   Thunderstorms, Rain, Fog
16:00 25.4 21.4 78 0.0 21 18 16.1 99.36 34   LegendNANA
17:00 25.6 21.6 78 0.0 21 21 16.1 99.38 35   LegendNANA
18:00 21.6 19.8 89 6.8 31 13 16.1 99.42 29   Thunderstorms
19:00 21.6 20.3 92 0.0 LegendMM 4 16.1 99.44 29   LegendNANA
20:00 22.1 20.6 91 0.0 26 5 16.1 99.43 30   LegendNANA
21:00 21.5 20.5 94 0.0 21 8 16.1 99.44 29   LegendNANA
22:00 21.2 20.2 94 0.0 23 8 16.1 99.50 29   LegendNANA
23:00 20.4 19.6 95 0.0 21 8 16.1 99.51 28   LegendNANA

Notes on Data Quality.

Legend

  • E = Estimated
  • M = Missing
  • NA = Not Available*
  • [empty] = Indicates an unobserved value
Date modified: